sat.trackr.live / text

‹ back to catalog

STARLINK-5435

NORAD 54797 · 2022-175AR

PAYLOAD ACTIVE UNKNOWN

§ Identity

Operator
Country
US
Launch date
2022-12-17
Launch site
AFETR
Launch vehicle
Mass (kg)
RCS (m²)

Purposes: comms

External: N2YO · Heavens-Above · Gunter

§ Orbital elements

Epoch: 2026-09-20T13:15:41.905440Z

Period
93.85 min
Inclination
53.1590°
Eccentricity
0.0001334
Mean motion
15.34393036 rev/d
Perigee alt
461.8 km
Apogee alt
463.6 km
Semi-major
6,840.9 km
B*
3.5116e-5
RAAN
237.6705°
Arg perigee
90.7011°
Mean anomaly
269.4144°
Rev number
20,949

§ Raw data

STARLINK-54351 54797U 22175AR  26263.55256835  .00000810  00000+0  35116-4 0  99952 54797  53.1590 237.6705 0001334  90.7011 269.4144 15.34393036209497

JSON: /api/v1/satellites/54797 · /tle

For live sub-satellite position, see the globe view (requires WebGL).

§ Visibility from observer

Set your observer location to see the next 7 days of passes ≥ 10°. The values pass through the URL so the page stays shareable.

No JS? Fill the form by hand. The geolocation button needs JavaScript.